Regional Weather Roundup
Issued by NWS

Home | Current Version | Previous Version | Text Only | Print | Product List | Glossary Off
Versions: 1 2 3 4 5 6 7 8 9 10 11 12 13 14 15 16 17 18 19 20 21 22 23 24 25 26 27 28 29 30 31 32 33 34 35 36 37 38 39 40 41 42 43 44 45 46 47 48 49 50

000
ASUS43 KLMK 272210
RWRKY
KENTUCKY REGIONAL WEATHER ROUNDUP
NATIONAL WEATHER SERVICE LOUISVILLE KY
600 PM EDT FRI MAR 27 2015

NOTE "FAIR" INDICATES FEW OR NO CLOUDS BELOW 12,000 FEET
WITH NO SIGNIFICANT WEATHER AND/OR OBSTRUCTIONS TO VISIBILITY.

KYZ001>023-026-027-061>063-070>075-272300-
WESTERN AND SOUTH CENTRAL KENTUCKY

CITY           SKY/WX    TMP DP  RH WIND       PRES   REMARKS
PADUCAH        CLOUDY    40  25  55 N14G20    30.12R WCI  32
HENDERSON      CLOUDY    39  18  41 NW14      30.10R WCI  31
OWENSBORO      CLOUDY    39  24  55 N16       30.09R WCI  30
HOPKINSVILLE   CLOUDY    37  32  81 N14G21    30.06R WCI  29
BOWLING GREEN  CLOUDY    42  26  53 N13G18    30.03S
GLASGOW        CLOUDY    40  28  63 N9G17     30.01S WCI  33
$$

KYZ024-025-028>034-038-045-046-053-272300-
NORTH CENTRAL KENTUCKY

CITY           SKY/WX    TMP DP  RH WIND       PRES   REMARKS
LOUISVILLE/SDF FLURRIES  38  24  57 N12       30.05R WCI  30
LOUISVILLE/LOU CLOUDY    37  23  56 N12       30.05R WCI  29
FORT KNOX      CLOUDY    37  23  56 NW15      30.02R WCI  28
$$

KYZ035>037-039>044-047>052-055>060-089>105-272300-
NORTHEAST KENTUCKY

CITY           SKY/WX    TMP DP  RH WIND       PRES   REMARKS
LEXINGTON      CLOUDY    36  23  59 NW14G23   29.99R WCI  27
COVINGTON      CLOUDY    33  16  49 N13       30.02R WCI  24
FRANKFORT      CLOUDY    36  22  56 NW14G22   30.01R WCI  27
$$

KYZ054-064>069-076>088-106>120-272300-
SOUTHEAST KENTUCKY

CITY           SKY/WX    TMP DP  RH WIND       PRES   REMARKS
JACKSON        CLOUDY    38  23  55 VRB3      29.92R
LONDON         CLOUDY    40  24  53 N13       29.94R WCI  32
SOMERSET       CLOUDY    37  27  65 N10       29.98R WCI  30
MIDDLESBORO    CLOUDY    43  31  62 NW13G20   29.91R
MONTICELLO     LGT RAIN  40  30  67 NW14      30.00R WCI  32
$$



USA.gov is the U.S. government's official web portal to all federal, state and local government web resources and services.